| time (UTC) | temp C | wind direction | speed KPH | gust KPH | rain 1hr cm | rain 24hr cm | rain mn cm | humidity % | barometer mb |
| 20260508025116 | 8 | 338 | 1.6 | 3.2 | 0.00 | 0.00 | 0.00 | 54 | 1008.7 |
| 20260508024636 | 8 | 338 | 1.6 | 3.2 | 0.00 | 0.00 | 0.00 | 54 | 1008.7 |
| 20260508024116 | 9 | 338 | 3.2 | 3.2 | 0.00 | 0.00 | 0.00 | 53 | 1008.7 |
| 20260508023616 | 9 | 338 | 1.6 | 4.8 | 0.00 | 0.00 | 0.00 | 53 | 1008.7 |
| 20260508023116 | 9 | 0 | 1.6 | 6.4 | 0.00 | 0.00 | 0.00 | 53 | 1008.7 |
| 20260508022616 | 9 | 0 | 1.6 | 3.2 | 0.00 | 0.00 | 0.00 | 53 | 1008.7 |
| 20260508022116 | 9 | 0 | 3.2 | 4.8 | 0.00 | 0.00 | 0.00 | 53 | 1008.8 |
| 20260508021616 | 9 | 338 | 1.6 | 3.2 | 0.00 | 0.00 | 0.00 | 53 | 1008.7 |
| 20260508021116 | 9 | 338 | 3.2 | 4.8 | 0.00 | 0.00 | 0.00 | 53 | 1008.7 |
| 20260508020636 | 9 | 0.0 | 0.0 | 0.00 | 0.00 | 0.00 | 54 | 1008.7 | |
| 20260508020116 | 9 | 0.0 | 0.0 | 0.00 | 0.00 | 0.00 | 54 | 1008.7 | |
| 20260508015616 | 9 | 0.0 | 0.0 | 0.00 | 0.00 | 0.00 | 54 | 1008.6 | |
| 20260508015116 | 9 | 0.0 | 0.0 | 0.00 | 0.00 | 0.00 | 54 | 1008.6 | |
| 20260508014616 | 9 | 0.0 | 0.0 | 0.00 | 0.00 | 0.00 | 54 | 1008.6 | |
| 20260508014116 | 9 | 0.0 | 0.0 | 0.00 | 0.00 | 0.00 | 54 | 1008.5 | |
| 20260508013616 | 9 | 0.0 | 1.6 | 0.00 | 0.00 | 0.00 | 54 | 1008.5 | |
| 20260508013117 | 9 | 0.0 | 0.0 | 0.00 | 0.00 | 0.00 | 53 | 1008.5 | |
| 20260508012616 | 9 | 0.0 | 0.0 | 0.00 | 0.00 | 0.00 | 53 | 1008.5 | |
| 20260508012116 | 9 | 0.0 | 1.6 | 0.00 | 0.00 | 0.00 | 53 | 1008.5 | |
| 20260508011615 | 9 | 0.0 | 0.0 | 0.00 | 0.00 | 0.00 | 53 | 1008.4 | |
| 20260508011116 | 10 | 0.0 | 1.6 | 0.00 | 0.00 | 0.00 | 53 | 1008.4 | |
| 20260508010636 | 10 | 0.0 | 0.0 | 0.00 | 0.00 | 0.00 | 52 | 1008.4 | |
| 20260508010116 | 10 | 0.0 | 0.0 | 0.00 | 0.00 | 0.00 | 52 | 1008.4 | |
| 20260508005616 | 10 | 0.0 | 1.6 | 0.00 | 0.00 | 0.00 | 51 | 1008.3 | |
| 20260508005116 | 10 | 0.0 | 3.2 | 0.00 | 0.00 | 0.00 | 51 | 1008.2 | |
| 20260508004636 | 10 | 0.0 | 1.6 | 0.00 | 0.00 | 0.00 | 51 | 1008.2 | |
| 20260508004116 | 10 | 270 | 3.2 | 6.4 | 0.00 | 0.00 | 0.00 | 50 | 1008.2 |
| 20260508003615 | 10 | 0.0 | 1.6 | 0.00 | 0.00 | 0.00 | 50 | 1008.1 | |
| 20260508003138 | 10 | 0.0 | 1.6 | 0.00 | 0.00 | 0.00 | 50 | 1008.1 | |
| 20260508002618 | 10 | 293 | 1.6 | 3.2 | 0.00 | 0.00 | 0.00 | 50 | 1008.0 |
| 20260508002137 | 10 | 293 | 1.6 | 1.6 | 0.00 | 0.00 | 0.00 | 49 | 1007.9 |
| 20260508001638 | 10 | 293 | 1.6 | 4.8 | 0.00 | 0.00 | 0.00 | 49 | 1007.9 |
| 20260508001138 | 10 | 293 | 3.2 | 3.2 | 0.00 | 0.00 | 0.00 | 49 | 1007.9 |
| 20260508000618 | 10 | 293 | 4.8 | 8.0 | 0.00 | 0.00 | 0.00 | 49 | 1007.9 |
| 20260508000117 | 10 | 0.0 | 1.6 | 0.00 | 0.00 | 0.00 | 48 | 1007.9 | |
| 20260507235617 | 10 | 293 | 1.6 | 4.8 | 0.00 | 0.00 | 0.00 | 48 | 1007.9 |
| 20260507235117 | 10 | 293 | 4.8 | 11.3 | 0.00 | 0.00 | 0.00 | 47 | 1007.9 |
| 20260507234618 | 10 | 293 | 4.8 | 9.7 | 0.00 | 0.00 | 0.00 | 47 | 1007.9 |
| 20260507234117 | 10 | 293 | 3.2 | 4.8 | 0.00 | 0.00 | 0.00 | 47 | 1007.9 |
| 20260507233618 | 10 | 293 | 9.7 | 14.5 | 0.00 | 0.00 | 0.00 | 46 | 1007.9 |
| 20260507233117 | 10 | 293 | 9.7 | 14.5 | 0.00 | 0.00 | 0.00 | 46 | 1007.9 |
| 20260507232617 | 11 | 270 | 4.8 | 6.4 | 0.00 | 0.00 | 0.00 | 46 | 1007.8 |
| 20260507232118 | 11 | 293 | 6.4 | 11.3 | 0.00 | 0.00 | 0.00 | 45 | 1007.8 |
| 20260507231618 | 11 | 248 | 4.8 | 8.0 | 0.00 | 0.00 | 0.00 | 45 | 1007.7 |
| 20260507231117 | 11 | 293 | 6.4 | 14.5 | 0.00 | 0.00 | 0.00 | 45 | 1007.7 |
| 20260507230618 | 11 | 248 | 8.0 | 14.5 | 0.00 | 0.00 | 0.00 | 43 | 1007.8 |
| 20260507230117 | 11 | 293 | 9.7 | 16.1 | 0.00 | 0.00 | 0.00 | 43 | 1007.7 |
| 20260507225618 | 12 | 270 | 9.7 | 14.5 | 0.00 | 0.00 | 0.00 | 43 | 1007.7 |
| 20260507225118 | 12 | 315 | 8.0 | 12.9 | 0.00 | 0.00 | 0.00 | 43 | 1007.7 |
| 20260507224618 | 12 | 270 | 6.4 | 12.9 | 0.00 | 0.00 | 0.00 | 44 | 1007.6 |
| 20260507224117 | 11 | 315 | 3.2 | 6.4 | 0.00 | 0.00 | 0.00 | 44 | 1007.6 |
| 20260507223658 | 11 | 248 | 4.8 | 8.0 | 0.00 | 0.00 | 0.00 | 45 | 1007.6 |
| 20260507223117 | 11 | 293 | 8.0 | 12.9 | 0.00 | 0.00 | 0.00 | 45 | 1007.7 |
| 20260507222617 | 11 | 315 | 1.6 | 4.8 | 0.00 | 0.00 | 0.00 | 45 | 1007.6 |
| 20260507222117 | 11 | 293 | 6.4 | 12.9 | 0.00 | 0.00 | 0.00 | 45 | 1007.7 |
| 20260507221617 | 11 | 293 | 9.7 | 17.7 | 0.00 | 0.00 | 0.00 | 46 | 1007.7 |
| 20260507221117 | 11 | 0 | 4.8 | 9.7 | 0.00 | 0.00 | 0.00 | 46 | 1007.7 |
| 20260507220617 | 11 | 248 | 11.3 | 17.7 | 0.00 | 0.00 | 0.00 | 45 | 1007.7 |
| 20260507220118 | 11 | 270 | 9.7 | 12.9 | 0.00 | 0.00 | 0.00 | 45 | 1007.8 |
| 20260507215617 | 11 | 248 | 6.4 | 12.9 | 0.00 | 0.00 | 0.00 | 44 | 1007.7 |
| 20260507215117 | 11 | 248 | 6.4 | 12.9 | 0.00 | 0.00 | 0.00 | 45 | 1007.7 |
| 20260507214617 | 11 | 270 | 9.7 | 20.9 | 0.00 | 0.00 | 0.00 | 44 | 1007.8 |
| 20260507214117 | 11 | 293 | 8.0 | 16.1 | 0.00 | 0.00 | 0.00 | 45 | 1007.6 |
| 20260507213637 | 11 | 248 | 6.4 | 16.1 | 0.00 | 0.00 | 0.00 | 46 | 1007.6 |
| 20260507213117 | 11 | 270 | 4.8 | 11.3 | 0.00 | 0.00 | 0.00 | 46 | 1007.6 |
| 20260507212617 | 11 | 270 | 16.1 | 24.1 | 0.00 | 0.00 | 0.00 | 46 | 1007.6 |
| 20260507212117 | 10 | 248 | 9.7 | 16.1 | 0.00 | 0.00 | 0.00 | 47 | 1007.6 |
| 20260507211617 | 10 | 248 | 16.1 | 25.7 | 0.00 | 0.00 | 0.00 | 46 | 1007.6 |
| 20260507211117 | 10 | 270 | 9.7 | 22.5 | 0.00 | 0.00 | 0.00 | 46 | 1007.5 |
| 20260507210617 | 10 | 315 | 11.3 | 19.3 | 0.00 | 0.00 | 0.00 | 46 | 1007.5 |
| 20260507210117 | 11 | 270 | 14.5 | 20.9 | 0.00 | 0.00 | 0.00 | 46 | 1007.5 |
| 20260507205617 | 11 | 270 | 14.5 | 22.5 | 0.00 | 0.00 | 0.00 | 45 | 1007.5 |
| 20260507205117 | 11 | 270 | 11.3 | 25.7 | 0.00 | 0.00 | 0.00 | 45 | 1007.5 |
| 20260507204617 | 11 | 225 | 14.5 | 25.7 | 0.00 | 0.00 | 0.00 | 45 | 1007.4 |
| 20260507204117 | 11 | 270 | 16.1 | 22.5 | 0.00 | 0.00 | 0.00 | 44 | 1007.3 |
| 20260507203618 | 11 | 270 | 14.5 | 29.0 | 0.00 | 0.00 | 0.00 | 45 | 1007.4 |
| 20260507203117 | 11 | 248 | 19.3 | 27.4 | 0.00 | 0.00 | 0.00 | 43 | 1007.3 |
| 20260507202617 | 11 | 270 | 19.3 | 30.6 | 0.00 | 0.00 | 0.00 | 43 | 1007.1 |
| 20260507202137 | 12 | 248 | 14.5 | 22.5 | 0.00 | 0.00 | 0.00 | 42 | 1007.3 |
| 20260507201617 | 12 | 248 | 19.3 | 29.0 | 0.00 | 0.00 | 0.00 | 42 | 1007.3 |
| 20260507201116 | 12 | 270 | 17.7 | 25.7 | 0.00 | 0.00 | 0.00 | 45 | 1007.2 |
| 20260507200617 | 12 | 248 | 14.5 | 20.9 | 0.00 | 0.00 | 0.00 | 45 | 1007.2 |
| 20260507200117 | 12 | 270 | 4.8 | 11.3 | 0.00 | 0.00 | 0.00 | 46 | 1007.2 |
| 20260507195617 | 12 | 270 | 9.7 | 19.3 | 0.00 | 0.00 | 0.00 | 46 | 1007.2 |
| 20260507195117 | 11 | 270 | 11.3 | 25.7 | 0.00 | 0.00 | 0.00 | 48 | 1007.4 |
| 20260507194617 | 11 | 270 | 14.5 | 24.1 | 0.00 | 0.00 | 0.00 | 47 | 1007.3 |
| 20260507194117 | 11 | 293 | 11.3 | 19.3 | 0.00 | 0.00 | 0.00 | 46 | 1007.3 |
| 20260507193637 | 11 | 248 | 14.5 | 20.9 | 0.00 | 0.00 | 0.00 | 45 | 1007.3 |
| 20260507193137 | 11 | 248 | 19.3 | 30.6 | 0.00 | 0.00 | 0.00 | 44 | 1007.3 |
| 20260507192617 | 11 | 293 | 11.3 | 20.9 | 0.00 | 0.00 | 0.00 | 45 | 1007.2 |
| 20260507192117 | 11 | 270 | 17.7 | 22.5 | 0.00 | 0.00 | 0.00 | 45 | 1007.3 |
| 20260507191617 | 11 | 270 | 8.0 | 19.3 | 0.00 | 0.00 | 0.00 | 47 | 1007.4 |
| 20260507191137 | 11 | 248 | 8.0 | 16.1 | 0.00 | 0.00 | 0.00 | 46 | 1007.4 |
| 20260507190637 | 11 | 293 | 16.1 | 29.0 | 0.00 | 0.00 | 0.00 | 45 | 1007.4 |
| 20260507190117 | 11 | 270 | 9.7 | 16.1 | 0.00 | 0.00 | 0.00 | 46 | 1007.4 |
| 20260507185617 | 11 | 270 | 9.7 | 16.1 | 0.00 | 0.00 | 0.00 | 47 | 1007.4 |
| 20260507185137 | 10 | 248 | 8.0 | 12.9 | 0.00 | 0.00 | 0.00 | 48 | 1007.4 |
| 20260507184617 | 10 | 293 | 14.5 | 24.1 | 0.00 | 0.00 | 0.00 | 48 | 1007.5 |
| 20260507184117 | 11 | 248 | 16.1 | 27.4 | 0.00 | 0.00 | 0.00 | 46 | 1007.5 |
| 20260507183617 | 11 | 293 | 16.1 | 25.7 | 0.00 | 0.00 | 0.00 | 45 | 1007.4 |
| 20260507183117 | 11 | 270 | 14.5 | 27.4 | 0.00 | 0.00 | 0.00 | 43 | 1007.3 |
| 20260507182617 | 11 | 293 | 11.3 | 20.9 | 0.00 | 0.00 | 0.00 | 43 | 1007.3 |
| 20260507182117 | 11 | 293 | 11.3 | 19.3 | 0.00 | 0.00 | 0.00 | 44 | 1007.2 |
| 20260507181637 | 11 | 270 | 14.5 | 25.7 | 0.00 | 0.00 | 0.00 | 44 | 1007.2 |
| 20260507181137 | 11 | 248 | 12.9 | 20.9 | 0.00 | 0.00 | 0.00 | 44 | 1007.1 |
| 20260507180616 | 10 | 248 | 16.1 | 24.1 | 0.00 | 0.00 | 0.00 | 45 | 1007.2 |
| 20260507180117 | 10 | 270 | 14.5 | 27.4 | 0.00 | 0.00 | 0.00 | 46 | 1007.2 |
| 20260507175616 | 10 | 270 | 19.3 | 27.4 | 0.00 | 0.00 | 0.00 | 46 | 1007.3 |
| 20260507175116 | 10 | 270 | 17.7 | 25.7 | 0.00 | 0.00 | 0.00 | 46 | 1007.1 |
| 20260507174616 | 10 | 293 | 12.9 | 22.5 | 0.00 | 0.00 | 0.00 | 46 | 1007.2 |
| 20260507174117 | 10 | 270 | 14.5 | 24.1 | 0.00 | 0.00 | 0.00 | 46 | 1007.1 |
| 20260507173616 | 10 | 248 | 16.1 | 25.7 | 0.00 | 0.00 | 0.00 | 46 | 1007.1 |
| 20260507173117 | 10 | 248 | 24.1 | 30.6 | 0.00 | 0.00 | 0.00 | 47 | 1007.2 |
| 20260507172616 | 10 | 270 | 19.3 | 38.6 | 0.00 | 0.00 | 0.00 | 47 | 1007.2 |
| 20260507172116 | 10 | 248 | 19.3 | 24.1 | 0.00 | 0.00 | 0.00 | 46 | 1007.2 |
| 20260507171617 | 11 | 248 | 16.1 | 33.8 | 0.00 | 0.00 | 0.00 | 45 | 1007.1 |
| 20260507171117 | 11 | 248 | 19.3 | 29.0 | 0.00 | 0.00 | 0.00 | 45 | 1007.1 |
| 20260507170616 | 11 | 248 | 16.1 | 20.9 | 0.00 | 0.00 | 0.00 | 44 | 1007.1 |
| 20260507170117 | 11 | 270 | 14.5 | 17.7 | 0.00 | 0.00 | 0.00 | 45 | 1007.2 |
| 20260507165616 | 10 | 248 | 16.1 | 25.7 | 0.00 | 0.00 | 0.00 | 46 | 1007.4 |
| 20260507165116 | 10 | 225 | 24.1 | 32.2 | 0.00 | 0.00 | 0.00 | 45 | 1007.1 |
| 20260507164616 | 11 | 270 | 17.7 | 32.2 | 0.00 | 0.00 | 0.00 | 46 | 1007.3 |
| 20260507164136 | 11 | 248 | 14.5 | 24.1 | 0.00 | 0.00 | 0.00 | 46 | 1007.3 |
| 20260507163617 | 10 | 225 | 14.5 | 22.5 | 0.00 | 0.00 | 0.00 | 47 | 1007.3 |
| 20260507163116 | 10 | 270 | 24.1 | 40.2 | 0.00 | 0.00 | 0.00 | 44 | 1007.6 |
| 20260507162616 | 10 | 248 | 24.1 | 37.0 | 0.00 | 0.00 | 0.00 | 44 | 1007.5 |
| 20260507162117 | 10 | 270 | 24.1 | 38.6 | 0.00 | 0.00 | 0.00 | 48 | 1007.5 |
| 20260507161616 | 10 | 248 | 20.9 | 30.6 | 0.00 | 0.03 | 0.00 | 46 | 1007.5 |
| 20260507161116 | 10 | 293 | 20.9 | 37.0 | 0.00 | 0.03 | 0.00 | 47 | 1007.4 |
| 20260507160617 | 10 | 248 | 27.4 | 51.5 | 0.00 | 0.03 | 0.00 | 47 | 1007.5 |
| 20260507160117 | 10 | 248 | 25.7 | 38.6 | 0.00 | 0.03 | 0.00 | 48 | 1007.4 |
| 20260507155636 | 10 | 248 | 22.5 | 35.4 | 0.00 | 0.03 | 0.00 | 50 | 1007.4 |
| 20260507155116 | 10 | 248 | 19.3 | 29.0 | 0.00 | 0.05 | 0.00 | 53 | 1007.5 |
| 20260507154617 | 10 | 248 | 17.7 | 29.0 | 0.00 | 0.05 | 0.00 | 54 | 1007.5 |
| 20260507154116 | 10 | 225 | 12.9 | 19.3 | 0.00 | 0.05 | 0.00 | 54 | 1007.5 |
| 20260507153616 | 10 | 248 | 20.9 | 29.0 | 0.00 | 0.05 | 0.00 | 55 | 1007.5 |
| 20260507153116 | 10 | 248 | 19.3 | 29.0 | 0.00 | 0.05 | 0.00 | 55 | 1007.6 |
| 20260507152616 | 10 | 248 | 16.1 | 27.4 | 0.00 | 0.05 | 0.00 | 55 | 1007.4 |
| 20260507152116 | 10 | 270 | 16.1 | 30.6 | 0.00 | 0.05 | 0.00 | 56 | 1007.5 |
| 20260507151616 | 10 | 248 | 14.5 | 27.4 | 0.00 | 0.05 | 0.00 | 56 | 1007.5 |
| 20260507151136 | 10 | 248 | 19.3 | 29.0 | 0.00 | 0.08 | 0.00 | 56 | 1007.4 |
| 20260507150616 | 9 | 270 | 16.1 | 22.5 | 0.00 | 0.08 | 0.00 | 57 | 1007.4 |
| 20260507150117 | 9 | 225 | 17.7 | 27.4 | 0.00 | 0.10 | 0.00 | 56 | 1007.5 |
| 20260507145616 | 9 | 248 | 16.1 | 25.7 | 0.00 | 0.10 | 0.00 | 56 | 1007.6 |
| 20260507145116 | 9 | 270 | 11.3 | 19.3 | 0.00 | 0.10 | 0.00 | 59 | 1007.5 |
| 20260507144616 | 8 | 270 | 14.5 | 22.5 | 0.00 | 0.13 | 0.00 | 58 | 1007.6 |
| 20260507144156 | 8 | 270 | 16.1 | 32.2 | 0.00 | 0.15 | 0.00 | 57 | 1007.6 |
| 20260507143616 | 8 | 270 | 16.1 | 25.7 | 0.00 | 0.15 | 0.00 | 58 | 1007.6 |
| 20260507143116 | 8 | 248 | 17.7 | 27.4 | 0.00 | 0.18 | 0.00 | 58 | 1007.6 |
| 20260507142616 | 8 | 225 | 12.9 | 22.5 | 0.00 | 0.18 | 0.00 | 58 | 1007.5 |
| 20260507142136 | 8 | 270 | 14.5 | 27.4 | 0.00 | 0.20 | 0.00 | 59 | 1007.6 |
| 20260507141616 | 8 | 248 | 19.3 | 32.2 | 0.00 | 0.23 | 0.00 | 58 | 1007.6 |
| 20260507141116 | 8 | 248 | 11.3 | 19.3 | 0.00 | 0.23 | 0.00 | 59 | 1007.7 |
| 20260507140637 | 8 | 270 | 16.1 | 22.5 | 0.00 | 0.23 | 0.00 | 58 | 1007.7 |
| 20260507140116 | 8 | 248 | 14.5 | 25.7 | 0.00 | 0.23 | 0.00 | 59 | 1007.6 |
| 20260507135636 | 8 | 248 | 12.9 | 20.9 | 0.00 | 0.25 | 0.00 | 59 | 1007.8 |
| 20260507135136 | 8 | 248 | 12.9 | 19.3 | 0.00 | 0.25 | 0.00 | 59 | 1007.6 |
| 20260507134615 | 8 | 248 | 11.3 | 20.9 | 0.00 | 0.28 | 0.00 | 60 | 1007.7 |
| 20260507134116 | 8 | 248 | 14.5 | 19.3 | 0.00 | 0.28 | 0.00 | 59 | 1007.7 |
| 20260507133616 | 8 | 225 | 12.9 | 22.5 | 0.00 | 0.30 | 0.00 | 59 | 1007.7 |
| 20260507133116 | 8 | 270 | 12.9 | 17.7 | 0.00 | 0.30 | 0.00 | 61 | 1007.7 |
| 20260507132636 | 8 | 270 | 12.9 | 17.7 | 0.00 | 0.33 | 0.00 | 61 | 1007.7 |
| 20260507132116 | 7 | 225 | 9.7 | 16.1 | 0.00 | 0.33 | 0.00 | 62 | 1007.7 |
| 20260507131616 | 7 | 248 | 20.9 | 30.6 | 0.00 | 0.33 | 0.00 | 62 | 1007.8 |
| 20260507131116 | 7 | 225 | 12.9 | 24.1 | 0.00 | 0.36 | 0.00 | 63 | 1007.7 |
| 20260507130616 | 7 | 270 | 20.9 | 33.8 | 0.00 | 0.36 | 0.00 | 62 | 1007.8 |
| 20260507130116 | 7 | 225 | 9.7 | 22.5 | 0.00 | 0.36 | 0.00 | 63 | 1007.7 |
| 20260507125616 | 7 | 248 | 17.7 | 27.4 | 0.00 | 0.38 | 0.00 | 63 | 1007.8 |
| 20260507125116 | 7 | 248 | 12.9 | 19.3 | 0.00 | 0.38 | 0.00 | 65 | 1007.7 |
| 20260507124637 | 7 | 270 | 17.7 | 27.4 | 0.00 | 0.38 | 0.00 | 64 | 1007.8 |
| 20260507124116 | 7 | 248 | 19.3 | 27.4 | 0.00 | 0.38 | 0.00 | 64 | 1007.8 |
| 20260507123616 | 7 | 270 | 16.1 | 24.1 | 0.00 | 0.41 | 0.00 | 64 | 1007.7 |
| 20260507123136 | 7 | 270 | 19.3 | 25.7 | 0.00 | 0.43 | 0.00 | 65 | 1007.7 |
| 20260507122616 | 7 | 248 | 17.7 | 25.7 | 0.00 | 0.43 | 0.00 | 65 | 1007.7 |
| 20260507122116 | 7 | 270 | 11.3 | 19.3 | 0.00 | 0.43 | 0.00 | 66 | 1007.7 |
| 20260507121616 | 7 | 225 | 17.7 | 22.5 | 0.00 | 0.43 | 0.00 | 67 | 1007.6 |
| 20260507121118 | 7 | 248 | 24.1 | 35.4 | 0.00 | 0.46 | 0.00 | 66 | 1007.8 |
| 20260507120618 | 7 | 248 | 16.1 | 27.4 | 0.00 | 0.46 | 0.00 | 66 | 1007.8 |
| 20260507120117 | 7 | 270 | 22.5 | 35.4 | 0.00 | 0.46 | 0.00 | 66 | 1007.8 |
| 20260507115658 | 7 | 248 | 9.7 | 16.1 | 0.00 | 0.48 | 0.00 | 66 | 1007.8 |
| 20260507115118 | 6 | 270 | 12.9 | 22.5 | 0.00 | 0.48 | 0.00 | 67 | 1007.7 |
| 20260507114618 | 6 | 248 | 14.5 | 20.9 | 0.00 | 0.48 | 0.00 | 67 | 1007.7 |
| 20260507114126 | 6 | 248 | 19.3 | 32.2 | 0.00 | 0.51 | 0.00 | 68 | 1007.7 |
| 20260507113617 | 6 | 248 | 12.9 | 24.1 | 0.00 | 0.51 | 0.00 | 69 | 1007.7 |
| 20260507113118 | 6 | 248 | 12.9 | 22.5 | 0.00 | 0.51 | 0.00 | 69 | 1007.7 |
| 20260507112617 | 6 | 248 | 16.1 | 25.7 | 0.00 | 0.51 | 0.00 | 68 | 1007.6 |
| 20260507112117 | 6 | 225 | 22.5 | 30.6 | 0.00 | 0.51 | 0.00 | 69 | 1007.8 |
| 20260507111618 | 7 | 270 | 17.7 | 24.1 | 0.00 | 0.53 | 0.00 | 69 | 1007.7 |
| 20260507111117 | 7 | 225 | 16.1 | 22.5 | 0.00 | 0.53 | 0.00 | 71 | 1007.7 |
| 20260507110618 | 7 | 248 | 14.5 | 35.4 | 0.00 | 0.53 | 0.00 | 72 | 1007.5 |
| 20260507110118 | 7 | 248 | 19.3 | 24.1 | 0.00 | 0.56 | 0.00 | 76 | 1007.4 |
| 20260507105617 | 7 | 248 | 19.3 | 29.0 | 0.00 | 0.56 | 0.00 | 78 | 1007.4 |
| 20260507105117 | 7 | 248 | 8.0 | 14.5 | 0.00 | 0.56 | 0.00 | 79 | 1007.3 |
| 20260507104618 | 7 | 248 | 11.3 | 17.7 | 0.00 | 0.58 | 0.00 | 81 | 1007.1 |
| 20260507104117 | 7 | 248 | 14.5 | 25.7 | 0.00 | 0.58 | 0.00 | 83 | 1007.1 |
| 20260507103618 | 7 | 225 | 8.0 | 16.1 | 0.00 | 0.61 | 0.00 | 84 | 1007.1 |
| 20260507103117 | 7 | 248 | 9.7 | 14.5 | 0.00 | 0.61 | 0.00 | 85 | 1007.2 |
| 20260507102617 | 7 | 225 | 9.7 | 16.1 | 0.00 | 0.61 | 0.00 | 85 | 1007.0 |
| 20260507102137 | 7 | 248 | 14.5 | 19.3 | 0.00 | 0.61 | 0.00 | 85 | 1007.0 |
| 20260507101717 | 7 | 225 | 11.3 | 19.3 | 0.00 | 0.61 | 0.00 | 85 | 1007.0 |
| 20260507101117 | 7 | 248 | 11.3 | 16.1 | 0.00 | 0.61 | 0.00 | 86 | 1007.2 |
| 20260507100618 | 7 | 225 | 11.3 | 20.9 | 0.00 | 0.61 | 0.00 | 86 | 1007.1 |
| 20260507100117 | 7 | 248 | 9.7 | 24.1 | 0.00 | 0.61 | 0.00 | 86 | 1007.1 |
| 20260507095618 | 7 | 270 | 4.8 | 12.9 | 0.00 | 0.61 | 0.00 | 86 | 1007.1 |
| 20260507095117 | 7 | 248 | 11.3 | 19.3 | 0.00 | 0.61 | 0.00 | 85 | 1007.2 |
| 20260507094617 | 7 | 270 | 8.0 | 19.3 | 0.00 | 0.61 | 0.00 | 85 | 1007.2 |
| 20260507094117 | 7 | 270 | 9.7 | 19.3 | 0.00 | 0.61 | 0.00 | 85 | 1007.2 |
| 20260507093617 | 7 | 225 | 9.7 | 16.1 | 0.00 | 0.61 | 0.00 | 85 | 1007.2 |
| 20260507093117 | 7 | 225 | 14.5 | 25.7 | 0.00 | 0.61 | 0.00 | 86 | 1007.2 |
| 20260507092637 | 7 | 270 | 8.0 | 11.3 | 0.00 | 0.61 | 0.00 | 86 | 1007.2 |
| 20260507092117 | 7 | 248 | 11.3 | 19.3 | 0.00 | 0.61 | 0.00 | 86 | 1007.1 |
| 20260507091617 | 7 | 248 | 14.5 | 27.4 | 0.00 | 0.61 | 0.00 | 86 | 1007.1 |
| 20260507091117 | 7 | 248 | 9.7 | 16.1 | 0.00 | 0.61 | 0.00 | 86 | 1007.0 |
| 20260507090617 | 7 | 225 | 9.7 | 16.1 | 0.00 | 0.61 | 0.00 | 86 | 1007.0 |
| 20260507090117 | 7 | 248 | 9.7 | 22.5 | 0.00 | 0.61 | 0.00 | 86 | 1007.0 |
| 20260507085618 | 7 | 225 | 11.3 | 16.1 | 0.00 | 0.61 | 0.00 | 86 | 1007.0 |
| 20260507085117 | 7 | 248 | 3.2 | 6.4 | 0.00 | 0.61 | 0.00 | 86 | 1007.0 |
| 20260507084617 | 7 | 203 | 6.4 | 8.0 | 0.00 | 0.61 | 0.00 | 86 | 1006.9 |
| 20260507084117 | 7 | 248 | 8.0 | 12.9 | 0.00 | 0.61 | 0.00 | 86 | 1007.0 |
| 20260507083617 | 7 | 225 | 4.8 | 9.7 | 0.00 | 0.61 | 0.00 | 86 | 1006.9 |
| 20260507083117 | 7 | 225 | 6.4 | 11.3 | 0.00 | 0.61 | 0.00 | 86 | 1006.9 |
| 20260507082617 | 7 | 270 | 4.8 | 14.5 | 0.00 | 0.61 | 0.00 | 86 | 1007.0 |
| 20260507082117 | 7 | 225 | 9.7 | 16.1 | 0.00 | 0.61 | 0.00 | 86 | 1007.0 |
| 20260507081617 | 7 | 248 | 1.6 | 4.8 | 0.00 | 0.61 | 0.00 | 86 | 1007.0 |
| 20260507081118 | 7 | 225 | 3.2 | 4.8 | 0.00 | 0.61 | 0.00 | 86 | 1007.2 |
| 20260507080617 | 7 | 248 | 3.2 | 6.4 | 0.00 | 0.61 | 0.00 | 86 | 1007.2 |
| 20260507080117 | 7 | 270 | 9.7 | 14.5 | 0.00 | 0.61 | 0.00 | 86 | 1007.3 |
| 20260507075618 | 7 | 270 | 6.4 | 9.7 | 0.00 | 0.61 | 0.00 | 86 | 1007.3 |
| 20260507075117 | 7 | 270 | 6.4 | 11.3 | 0.00 | 0.61 | 0.00 | 86 | 1007.2 |
| 20260507074617 | 7 | 248 | 6.4 | 14.5 | 0.00 | 0.61 | 0.00 | 86 | 1007.4 |
| 20260507074157 | 7 | 248 | 6.4 | 11.3 | 0.00 | 0.61 | 0.00 | 86 | 1007.4 |
| 20260507073617 | 7 | 270 | 3.2 | 4.8 | 0.00 | 0.61 | 0.00 | 85 | 1007.3 |
| 20260507073117 | 7 | 225 | 6.4 | 12.9 | 0.00 | 0.61 | 0.00 | 85 | 1007.4 |
| 20260507072617 | 7 | 225 | 8.0 | 12.9 | 0.00 | 0.61 | 0.00 | 85 | 1007.3 |
| 20260507072117 | 7 | 248 | 4.8 | 9.7 | 0.00 | 0.61 | 0.00 | 85 | 1007.3 |
| 20260507071617 | 7 | 248 | 9.7 | 16.1 | 0.00 | 0.61 | 0.00 | 85 | 1007.4 |
| 20260507071137 | 7 | 248 | 9.7 | 14.5 | 0.00 | 0.61 | 0.00 | 85 | 1007.4 |
| 20260507070637 | 7 | 270 | 9.7 | 14.5 | 0.00 | 0.61 | 0.00 | 85 | 1007.3 |
| 20260507070117 | 7 | 225 | 9.7 | 19.3 | 0.00 | 0.61 | 0.00 | 85 | 1007.3 |
| 20260507065617 | 7 | 270 | 4.8 | 8.0 | 0.00 | 0.61 | 0.00 | 85 | 1007.4 |
| 20260507065117 | 7 | 225 | 9.7 | 12.9 | 0.00 | 0.61 | 0.00 | 85 | 1007.4 |
| 20260507064617 | 7 | 248 | 1.6 | 9.7 | 0.00 | 0.61 | 0.00 | 85 | 1007.4 |
| 20260507064117 | 7 | 248 | 4.8 | 6.4 | 0.00 | 0.61 | 0.00 | 85 | 1007.5 |
| 20260507063616 | 7 | 248 | 6.4 | 11.3 | 0.00 | 0.61 | 0.00 | 85 | 1007.5 |
| 20260507063117 | 7 | 248 | 6.4 | 11.3 | 0.00 | 0.61 | 0.00 | 85 | 1007.6 |
| 20260507062637 | 7 | 248 | 9.7 | 14.5 | 0.00 | 0.61 | 0.00 | 85 | 1007.6 |
| 20260507062117 | 7 | 248 | 6.4 | 11.3 | 0.00 | 0.61 | 0.00 | 85 | 1007.5 |
| 20260507061617 | 7 | 248 | 4.8 | 8.0 | 0.00 | 0.61 | 0.00 | 85 | 1007.5 |
| 20260507061117 | 7 | 225 | 6.4 | 11.3 | 0.00 | 0.61 | 0.00 | 86 | 1007.5 |
| 20260507060617 | 7 | 248 | 8.0 | 12.9 | 0.00 | 0.61 | 0.00 | 86 | 1007.5 |
| 20260507060116 | 7 | 248 | 6.4 | 9.7 | 0.00 | 0.61 | 0.00 | 86 | 1007.7 |
| 20260507055617 | 7 | 248 | 6.4 | 11.3 | 0.00 | 0.61 | 0.00 | 86 | 1007.7 |
| 20260507055117 | 7 | 248 | 4.8 | 8.0 | 0.00 | 0.61 | 0.00 | 86 | 1007.7 |
| 20260507054617 | 7 | 248 | 3.2 | 4.8 | 0.00 | 0.61 | 0.00 | 86 | 1007.8 |
| 20260507054137 | 7 | 248 | 3.2 | 4.8 | 0.00 | 0.61 | 0.00 | 86 | 1007.8 |
| 20260507053616 | 7 | 225 | 3.2 | 8.0 | 0.00 | 0.61 | 0.00 | 86 | 1007.8 |
| 20260507053117 | 7 | 248 | 4.8 | 9.7 | 0.00 | 0.61 | 0.00 | 86 | 1007.9 |
| 20260507052617 | 7 | 225 | 3.2 | 6.4 | 0.00 | 0.61 | 0.00 | 86 | 1007.9 |
| 20260507052116 | 7 | 225 | 3.2 | 6.4 | 0.00 | 0.61 | 0.00 | 86 | 1007.9 |
| 20260507051617 | 7 | 248 | 1.6 | 3.2 | 0.00 | 0.61 | 0.00 | 86 | 1007.8 |
| 20260507051117 | 7 | 248 | 6.4 | 9.7 | 0.00 | 0.61 | 0.00 | 86 | 1008.0 |
| 20260507050616 | 7 | 203 | 3.2 | 6.4 | 0.00 | 0.61 | 0.00 | 86 | 1008.1 |
| 20260507050116 | 7 | 248 | 6.4 | 11.3 | 0.00 | 0.61 | 0.00 | 86 | 1008.2 |
| 20260507045616 | 7 | 225 | 3.2 | 6.4 | 0.00 | 0.61 | 0.00 | 86 | 1008.3 |
| 20260507045116 | 7 | 225 | 4.8 | 8.0 | 0.00 | 0.61 | 0.00 | 86 | 1008.4 |
| 20260507044617 | 7 | 225 | 1.6 | 4.8 | 0.00 | 0.61 | 0.00 | 86 | 1008.4 |
| 20260507044117 | 7 | 225 | 3.2 | 4.8 | 0.00 | 0.61 | 0.00 | 86 | 1008.5 |
| 20260507043616 | 7 | 225 | 3.2 | 9.7 | 0.00 | 0.61 | 0.00 | 85 | 1008.5 |
| 20260507043116 | 7 | 225 | 3.2 | 4.8 | 0.00 | 0.61 | 0.00 | 85 | 1008.6 |
| 20260507042616 | 7 | 248 | 4.8 | 11.3 | 0.00 | 0.61 | 0.00 | 85 | 1008.6 |
| 20260507042116 | 7 | 225 | 3.2 | 6.4 | 0.00 | 0.61 | 0.00 | 85 | 1008.5 |
| 20260507041637 | 7 | 248 | 6.4 | 11.3 | 0.00 | 0.61 | 0.00 | 85 | 1008.6 |
| 20260507041116 | 7 | 225 | 6.4 | 11.3 | 0.00 | 0.61 | 0.00 | 85 | 1008.6 |
| 20260507040616 | 7 | 248 | 6.4 | 9.7 | 0.00 | 0.61 | 0.00 | 85 | 1008.7 |
| 20260507040116 | 7 | 248 | 8.0 | 14.5 | 0.00 | 0.61 | 0.00 | 85 | 1008.7 |
| 20260507035616 | 7 | 270 | 4.8 | 8.0 | 0.00 | 0.61 | 0.61 | 85 | 1008.7 |
| 20260507035116 | 7 | 225 | 6.4 | 8.0 | 0.00 | 0.61 | 0.61 | 85 | 1008.7 |
| 20260507034616 | 7 | 225 | 8.0 | 12.9 | 0.00 | 0.61 | 0.61 | 85 | 1008.8 |
| 20260507034117 | 7 | 248 | 4.8 | 8.0 | 0.00 | 0.61 | 0.61 | 85 | 1008.8 |
| 20260507033616 | 7 | 293 | 4.8 | 12.9 | 0.00 | 0.61 | 0.61 | 85 | 1008.9 |
| 20260507033116 | 7 | 248 | 4.8 | 6.4 | 0.00 | 0.61 | 0.61 | 85 | 1008.9 |
| 20260507032617 | 7 | 248 | 4.8 | 6.4 | 0.00 | 0.61 | 0.61 | 85 | 1008.9 |
| 20260507032117 | 7 | 248 | 3.2 | 6.4 | 0.00 | 0.61 | 0.61 | 84 | 1008.9 |
| 20260507031616 | 7 | 270 | 3.2 | 4.8 | 0.00 | 0.61 | 0.61 | 84 | 1008.9 |
| 20260507031116 | 7 | 225 | 4.8 | 8.0 | 0.00 | 0.61 | 0.61 | 84 | 1009.0 |
| 20260507030616 | 7 | 248 | 4.8 | 6.4 | 0.00 | 0.61 | 0.61 | 83 | 1009.0 |
| 20260507030117 | 7 | 248 | 3.2 | 4.8 | 0.00 | 0.61 | 0.61 | 83 | 1009.0 |
| 20260507025618 | 7 | 248 | 3.2 | 4.8 | 0.00 | 0.61 | 0.61 | 83 | 1009.0 |